Wetterdaten: Woche 05.03.12 - 11.03.12 (KW10)
Datum Zeit Temp. Innen Temp. Aussen UV X Diff Temp. Feuchte Inne Feuchte Auss Sonnenschein Luftdruck Regen ab 0,1 Wind Sonnenschein T Regendauer Windben
05.03.2012 00:00 15,9 C 7,9 C 0,0 UV-I 0,0 C 61 % 96 % 0 % 1012,2 hPa 1,0 l/m 7,2 km/h (2 Bft) 0,00 h 0,90 h 11,3 km/h (2 Bft)
05.03.2012 01:00 15,9 C 7,7 C 0,0 UV-I 0,0 C 61 % 96 % 0 % 1011,6 hPa 0,6 l/m 7,9 km/h (2 Bft) 0,00 h 0,97 h 10,9 km/h (2 Bft)
05.03.2012 02:00 15,8 C 7,5 C 0,0 UV-I 0,0 C 61 % 96 % 0 % 1011,5 hPa 1,5 l/m 7,8 km/h (2 Bft) 0,00 h 0,47 h 12,0 km/h (2 Bft)
05.03.2012 03:00 15,7 C 7,4 C 0,0 UV-I 0,0 C 60 % 97 % 0 % 1010,9 hPa 1,6 l/m 9,4 km/h (2 Bft) 0,00 h 0,00 h 13,3 km/h (3 Bft)
05.03.2012 04:00 15,6 C 6,7 C 0,0 UV-I 0,0 C 59 % 96 % 0 % 1010,7 hPa 1,1 l/m 9,0 km/h (2 Bft) 0,00 h 0,60 h 13,5 km/h (3 Bft)
05.03.2012 05:00 15,2 C 4,8 C 0,0 UV-I 0,0 C 56 % 95 % 0 % 1011,6 hPa 0,5 l/m 7,3 km/h (2 Bft) 0,00 h 0,70 h 10,6 km/h (2 Bft)
05.03.2012 06:00 14,9 C 4,1 C 0,0 UV-I 0,0 C 55 % 96 % 0 % 1012,0 hPa 0,1 l/m 6,2 km/h (2 Bft) 0,00 h 0,03 h 11,7 km/h (2 Bft)
05.03.2012 07:00 14,8 C 4,3 C 0,0 UV-I 0,0 C 54 % 95 % 0 % 1012,4 hPa 0,0 l/m 5,2 km/h (1 Bft) 0,00 h 0,00 h 8,7 km/h (2 Bft)
05.03.2012 08:00 14,7 C 4,4 C 0,0 UV-I 0,0 C 53 % 94 % 1 % 1013,1 hPa 0,0 l/m 6,9 km/h (2 Bft) 0,00 h 0,03 h 12,0 km/h (2 Bft)
05.03.2012 09:00 14,7 C 4,7 C 0,0 UV-I 0,2 C 53 % 92 % 5 % 1013,6 hPa 0,0 l/m 6,7 km/h (2 Bft) 0,00 h 0,00 h 10,1 km/h (2 Bft)
05.03.2012 10:00 14,8 C 5,2 C 0,2 UV-I 0,6 C 51 % 87 % 17 % 1014,0 hPa 0,0 l/m 8,8 km/h (2 Bft) 0,00 h 0,00 h 14,3 km/h (3 Bft)
05.03.2012 11:00 14,8 C 5,8 C 0,3 UV-I 0,7 C 50 % 82 % 21 % 1014,3 hPa 0,0 l/m 10,8 km/h (2 Bft) 0,00 h 0,00 h 17,2 km/h (3 Bft)
05.03.2012 12:00 14,9 C 6,3 C 0,4 UV-I 0,5 C 48 % 77 % 13 % 1014,5 hPa 0,0 l/m 12,5 km/h (3 Bft) 0,00 h 0,00 h 18,7 km/h (3 Bft)
05.03.2012 13:00 14,8 C 6,4 C 0,1 UV-I 0,1 C 47 % 75 % 3 % 1014,7 hPa 0,0 l/m 11,8 km/h (2 Bft) 0,00 h 0,00 h 17,3 km/h (3 Bft)
05.03.2012 14:00 14,9 C 6,7 C 0,2 UV-I 0,4 C 47 % 73 % 11 % 1014,7 hPa 0,0 l/m 12,2 km/h (2 Bft) 0,00 h 0,00 h 17,7 km/h (3 Bft)
05.03.2012 15:00 14,8 C 6,6 C 0,0 UV-I 0,0 C 47 % 73 % 0 % 1014,7 hPa 0,0 l/m 13,5 km/h (3 Bft) 0,00 h 0,00 h 19,3 km/h (3 Bft)
05.03.2012 16:00 14,7 C 6,5 C 0,0 UV-I 0,0 C 47 % 73 % 0 % 1014,8 hPa 0,0 l/m 13,3 km/h (3 Bft) 0,00 h 0,00 h 19,2 km/h (3 Bft)
05.03.2012 17:00 14,6 C 6,2 C 0,0 UV-I 0,0 C 47 % 75 % 0 % 1015,0 hPa 0,0 l/m 13,2 km/h (3 Bft) 0,00 h 0,00 h 17,8 km/h (3 Bft)
05.03.2012 18:00 14,6 C 5,9 C 0,0 UV-I 0,0 C 48 % 77 % 0 % 1015,6 hPa 0,0 l/m 11,4 km/h (2 Bft) 0,00 h 0,00 h 15,2 km/h (3 Bft)
05.03.2012 19:00 14,4 C 5,9 C 0,0 UV-I 0,0 C 48 % 77 % 0 % 1016,1 hPa 0,0 l/m 13,6 km/h (3 Bft) 0,00 h 0,00 h 18,2 km/h (3 Bft)
05.03.2012 20:00 14,3 C 5,9 C 0,0 UV-I 0,0 C 48 % 77 % 0 % 1016,4 hPa 0,0 l/m 11,5 km/h (2 Bft) 0,00 h 0,00 h 16,5 km/h (3 Bft)
05.03.2012 21:00 14,4 C 5,7 C 0,0 UV-I 0,0 C 48 % 78 % 0 % 1016,7 hPa 0,0 l/m 12,0 km/h (2 Bft) 0,00 h 0,00 h 16,6 km/h (3 Bft)
05.03.2012 22:00 14,4 C 5,8 C 0,0 UV-I 0,0 C 48 % 79 % 0 % 1017,3 hPa 0,0 l/m 10,5 km/h (2 Bft) 0,00 h 0,00 h 13,7 km/h (3 Bft)
05.03.2012 23:00 14,4 C 5,8 C 0,0 UV-I 0,0 C 49 % 79 % 0 % 1017,9 hPa 0,0 l/m 10,2 km/h (2 Bft) 0,00 h 0,00 h 13,2 km/h (3 Bft)
06.03.2012 00:00 14,3 C 5,6 C 0,0 UV-I 0,0 C 49 % 81 % 0 % 1018,2 hPa 0,0 l/m 11,2 km/h (2 Bft) 0,00 h 0,00 h 15,1 km/h (3 Bft)
06.03.2012 01:00 14,4 C 5,6 C 0,0 UV-I 0,0 C 49 % 82 % 0 % 1018,8 hPa 0,0 l/m 10,0 km/h (2 Bft) 0,00 h 0,00 h 13,6 km/h (3 Bft)
06.03.2012 02:00 14,4 C 5,6 C 0,0 UV-I 0,0 C 49 % 82 % 0 % 1019,2 hPa 0,0 l/m 9,9 km/h (2 Bft) 0,00 h 0,00 h 13,2 km/h (3 Bft)
06.03.2012 03:00 14,3 C 5,6 C 0,0 UV-I 0,0 C 49 % 82 % 0 % 1019,4 hPa 0,0 l/m 7,8 km/h (2 Bft) 0,00 h 0,00 h 10,8 km/h (2 Bft)
06.03.2012 04:00 14,3 C 5,5 C 0,0 UV-I 0,0 C 50 % 83 % 0 % 1019,7 hPa 0,0 l/m 6,9 km/h (2 Bft) 0,00 h 0,00 h 9,0 km/h (2 Bft)
06.03.2012 05:00 14,3 C 5,6 C 0,0 UV-I 0,0 C 50 % 83 % 0 % 1020,2 hPa 0,0 l/m 5,7 km/h (1 Bft) 0,00 h 0,00 h 7,9 km/h (2 Bft)
06.03.2012 06:00 14,3 C 5,6 C 0,0 UV-I 0,0 C 50 % 83 % 0 % 1020,8 hPa 0,0 l/m 4,7 km/h (1 Bft) 0,00 h 0,00 h 7,2 km/h (2 Bft)
06.03.2012 07:00 14,3 C 5,5 C 0,0 UV-I 0,0 C 50 % 84 % 0 % 1021,8 hPa 0,0 l/m 5,1 km/h (1 Bft) 0,00 h 0,00 h 7,3 km/h (2 Bft)
06.03.2012 08:00 14,4 C 5,6 C 0,0 UV-I 0,0 C 50 % 84 % 1 % 1022,8 hPa 0,0 l/m 3,7 km/h (1 Bft) 0,00 h 0,00 h 6,1 km/h (2 Bft)
06.03.2012 09:00 14,6 C 6,2 C 0,0 UV-I 0,4 C 50 % 83 % 12 % 1023,3 hPa 0,0 l/m 5,7 km/h (1 Bft) 0,00 h 0,00 h 9,3 km/h (2 Bft)
06.03.2012 10:00 14,8 C 7,3 C 0,7 UV-I 2,4 C 50 % 80 % 61 % 1024,3 hPa 0,0 l/m 8,8 km/h (2 Bft) 0,30 h 0,00 h 10,5 km/h (2 Bft)
06.03.2012 11:00 15,0 C 8,7 C 1,1 UV-I 4,1 C 49 % 75 % 92 % 1025,0 hPa 0,0 l/m 7,9 km/h (2 Bft) 0,73 h 0,00 h 10,6 km/h (2 Bft)
06.03.2012 12:00 15,4 C 9,2 C 1,3 UV-I 3,1 C 49 % 73 % 75 % 1025,2 hPa 0,0 l/m 8,1 km/h (2 Bft) 0,27 h 0,00 h 11,4 km/h (2 Bft)
06.03.2012 13:00 16,1 C 9,9 C 1,0 UV-I 2,6 C 47 % 69 % 69 % 1026,3 hPa 0,0 l/m 6,2 km/h (2 Bft) 0,33 h 0,00 h 8,9 km/h (2 Bft)
06.03.2012 14:00 16,7 C 10,2 C 0,3 UV-I 2,0 C 46 % 66 % 55 % 1026,7 hPa 0,0 l/m 5,3 km/h (1 Bft) 0,20 h 0,00 h 6,3 km/h (2 Bft)
06.03.2012 15:00 16,5 C 10,0 C 0,0 UV-I 0,6 C 45 % 65 % 17 % 1026,5 hPa 0,0 l/m 2,3 km/h (1 Bft) 0,00 h 0,00 h 3,0 km/h (1 Bft)
06.03.2012 16:00 15,9 C 9,6 C 0,0 UV-I 0,0 C 46 % 67 % 0 % 1026,3 hPa 0,0 l/m 0,8 km/h (0 Bft) 0,00 h 0,00 h 0,9 km/h (0 Bft)
06.03.2012 17:00 15,6 C 9,2 C 0,0 UV-I 0,0 C 47 % 68 % 0 % 1026,1 hPa 0,0 l/m 1,8 km/h (1 Bft) 0,00 h 0,00 h 3,2 km/h (1 Bft)
06.03.2012 18:00 15,4 C 8,8 C 0,0 UV-I 0,0 C 48 % 70 % 0 % 1025,9 hPa 0,0 l/m 0,1 km/h (0 Bft) 0,00 h 0,00 h 0,0 km/h (0 Bft)
06.03.2012 19:00 15,2 C 8,2 C 0,0 UV-I 0,0 C 48 % 73 % 0 % 1026,5 hPa 0,0 l/m 0,0 km/h (0 Bft) 0,00 h 0,00 h 0,0 km/h (0 Bft)
06.03.2012 20:00 15,1 C 7,5 C 0,0 UV-I 0,0 C 49 % 77 % 0 % 1027,1 hPa 0,0 l/m 0,0 km/h (0 Bft) 0,00 h 0,00 h 0,0 km/h (0 Bft)
06.03.2012 21:00 15,2 C 6,7 C 0,0 UV-I 0,0 C 50 % 80 % 0 % 1027,1 hPa 0,0 l/m 0,1 km/h (0 Bft) 0,00 h 0,00 h 0,2 km/h (0 Bft)
06.03.2012 22:00 15,0 C 5,3 C 0,0 UV-I 0,0 C 50 % 82 % 0 % 1026,8 hPa 0,0 l/m 0,0 km/h (0 Bft) 0,00 h 0,00 h 0,0 km/h (0 Bft)
06.03.2012 23:00 14,8 C 3,9 C 0,0 UV-I 0,0 C 50 % 85 % 0 % 1026,8 hPa 0,0 l/m 0,0 km/h (0 Bft) 0,00 h 0,00 h 0,0 km/h (0 Bft)
07.03.2012 00:00 14,7 C 2,9 C 0,0 UV-I 0,0 C 50 % 88 % 0 % 1026,8 hPa 0,0 l/m 0,0 km/h (0 Bft) 0,00 h 0,00 h 0,0 km/h (0 Bft)
07.03.2012 01:00 14,5 C 2,3 C 0,0 UV-I 0,0 C 50 % 89 % 0 % 1026,5 hPa 0,0 l/m 0,0 km/h (0 Bft) 0,00 h 0,00 h 0,0 km/h (0 Bft)
07.03.2012 02:00 14,4 C 1,8 C 0,0 UV-I 0,0 C 50 % 90 % 0 % 1026,6 hPa 0,0 l/m 0,0 km/h (0 Bft) 0,00 h 0,00 h 0,0 km/h (0 Bft)
07.03.2012 03:00 14,3 C 1,4 C 0,0 UV-I 0,0 C 50 % 92 % 0 % 1025,7 hPa 0,0 l/m 0,0 km/h (0 Bft) 0,00 h 0,00 h 0,0 km/h (0 Bft)
07.03.2012 04:00 14,2 C 1,0 C 0,0 UV-I 0,0 C 49 % 92 % 0 % 1025,2 hPa 0,0 l/m 0,0 km/h (0 Bft) 0,00 h 0,00 h 0,0 km/h (0 Bft)
07.03.2012 05:00 14,1 C 1,1 C 0,0 UV-I 0,0 C 49 % 93 % 0 % 1024,9 hPa 0,0 l/m 0,0 km/h (0 Bft) 0,00 h 0,00 h 0,0 km/h (0 Bft)
07.03.2012 06:00 13,9 C 1,2 C 0,0 UV-I 0,0 C 50 % 94 % 0 % 1024,7 hPa 0,0 l/m 0,1 km/h (0 Bft) 0,00 h 0,00 h 0,6 km/h (0 Bft)
07.03.2012 07:00 14,0 C 2,3 C 0,0 UV-I 0,0 C 50 % 94 % 0 % 1024,4 hPa 0,0 l/m 1,7 km/h (1 Bft) 0,00 h 0,00 h 4,8 km/h (1 Bft)
07.03.2012 08:00 14,0 C 3,7 C 0,0 UV-I 0,0 C 49 % 93 % 0 % 1023,9 hPa 0,0 l/m 3,9 km/h (1 Bft) 0,00 h 0,00 h 6,0 km/h (2 Bft)
07.03.2012 09:00 14,0 C 4,8 C 0,0 UV-I 0,4 C 49 % 89 % 10 % 1023,1 hPa 0,0 l/m 5,2 km/h (1 Bft) 0,00 h 0,00 h 9,3 km/h (2 Bft)
07.03.2012 10:00 14,1 C 5,8 C 0,0 UV-I 0,9 C 49 % 86 % 25 % 1022,4 hPa 0,0 l/m 7,5 km/h (2 Bft) 0,00 h 0,00 h 12,2 km/h (2 Bft)
07.03.2012 11:00 14,2 C 6,6 C 0,1 UV-I 0,9 C 48 % 81 % 26 % 1021,5 hPa 0,0 l/m 8,3 km/h (2 Bft) 0,00 h 0,00 h 11,5 km/h (2 Bft)
07.03.2012 12:00 14,2 C 7,2 C 0,2 UV-I 0,9 C 47 % 76 % 24 % 1020,3 hPa 0,0 l/m 9,3 km/h (2 Bft) 0,00 h 0,00 h 11,7 km/h (2 Bft)
07.03.2012 13:00 14,4 C 7,6 C 0,2 UV-I 0,7 C 46 % 70 % 21 % 1019,1 hPa 0,0 l/m 12,0 km/h (2 Bft) 0,00 h 0,00 h 19,1 km/h (3 Bft)
07.03.2012 14:00 14,3 C 7,7 C 0,0 UV-I 0,2 C 45 % 68 % 5 % 1017,7 hPa 0,0 l/m 9,1 km/h (2 Bft) 0,00 h 0,00 h 12,1 km/h (2 Bft)
07.03.2012 15:00 14,2 C 7,6 C 0,0 UV-I 0,0 C 45 % 67 % 0 % 1016,5 hPa 0,0 l/m 8,3 km/h (2 Bft) 0,00 h 0,00 h 14,0 km/h (3 Bft)
07.03.2012 16:00 14,0 C 6,9 C 0,0 UV-I 0,0 C 45 % 73 % 0 % 1015,2 hPa 0,4 l/m 12,6 km/h (3 Bft) 0,00 h 0,70 h 18,9 km/h (3 Bft)
07.03.2012 17:00 13,7 C 5,2 C 0,0 UV-I 0,0 C 48 % 85 % 0 % 1014,2 hPa 2,4 l/m 11,3 km/h (2 Bft) 0,00 h 0,40 h 16,3 km/h (3 Bft)
07.03.2012 18:00 13,6 C 4,3 C 0,0 UV-I 0,0 C 50 % 90 % 0 % 1013,7 hPa 2,2 l/m 7,9 km/h (2 Bft) 0,00 h 0,00 h 13,3 km/h (3 Bft)
07.03.2012 19:00 13,4 C 4,1 C 0,0 UV-I 0,0 C 51 % 92 % 0 % 1013,3 hPa 1,4 l/m 7,0 km/h (2 Bft) 0,00 h 0,00 h 10,3 km/h (2 Bft)
07.03.2012 20:00 13,4 C 4,0 C 0,0 UV-I 0,0 C 52 % 93 % 0 % 1012,9 hPa 0,9 l/m 6,1 km/h (2 Bft) 0,00 h 0,00 h 10,1 km/h (2 Bft)
07.03.2012 21:00 13,4 C 4,1 C 0,0 UV-I 0,0 C 52 % 94 % 0 % 1012,4 hPa 0,4 l/m 6,2 km/h (2 Bft) 0,00 h 0,00 h 11,0 km/h (2 Bft)
07.03.2012 22:00 13,2 C 4,7 C 0,0 UV-I 0,0 C 53 % 95 % 0 % 1012,5 hPa 0,1 l/m 7,7 km/h (2 Bft) 0,00 h 0,10 h 9,7 km/h (2 Bft)
07.03.2012 23:00 13,4 C 5,3 C 0,0 UV-I 0,0 C 54 % 96 % 0 % 1013,4 hPa 0,1 l/m 6,2 km/h (2 Bft) 0,00 h 0,00 h 9,2 km/h (2 Bft)
08.03.2012 00:00 13,6 C 5,8 C 0,0 UV-I 0,0 C 54 % 96 % 0 % 1014,7 hPa 0,0 l/m 7,1 km/h (2 Bft) 0,00 h 0,00 h 10,3 km/h (2 Bft)
08.03.2012 01:00 13,7 C 5,4 C 0,0 UV-I 0,0 C 54 % 95 % 0 % 1015,9 hPa 0,0 l/m 6,0 km/h (2 Bft) 0,00 h 0,00 h 9,5 km/h (2 Bft)
08.03.2012 02:00 13,6 C 4,7 C 0,0 UV-I 0,0 C 54 % 95 % 0 % 1017,2 hPa 0,0 l/m 4,0 km/h (1 Bft) 0,00 h 0,00 h 5,8 km/h (2 Bft)
08.03.2012 03:00 13,6 C 4,2 C 0,0 UV-I 0,0 C 54 % 94 % 0 % 1018,5 hPa 0,0 l/m 2,7 km/h (1 Bft) 0,00 h 0,00 h 5,5 km/h (1 Bft)
08.03.2012 04:00 13,6 C 3,9 C 0,0 UV-I 0,0 C 53 % 94 % 0 % 1019,6 hPa 0,0 l/m 1,1 km/h (1 Bft) 0,00 h 0,00 h 1,4 km/h (1 Bft)
08.03.2012 05:00 13,6 C 3,4 C 0,0 UV-I 0,0 C 53 % 94 % 0 % 1020,3 hPa 0,0 l/m 0,4 km/h (0 Bft) 0,00 h 0,00 h 0,9 km/h (0 Bft)
08.03.2012 06:00 13,5 C 2,9 C 0,0 UV-I 0,0 C 53 % 95 % 0 % 1021,7 hPa 0,0 l/m 1,5 km/h (1 Bft) 0,00 h 0,00 h 2,9 km/h (1 Bft)
08.03.2012 07:00 13,4 C 2,8 C 0,0 UV-I 0,0 C 53 % 95 % 0 % 1023,1 hPa 0,0 l/m 1,9 km/h (1 Bft) 0,00 h 0,00 h 3,4 km/h (1 Bft)
08.03.2012 08:00 13,5 C 3,7 C 0,0 UV-I 0,0 C 53 % 96 % 0 % 1024,2 hPa 0,0 l/m 3,3 km/h (1 Bft) 0,00 h 0,00 h 5,2 km/h (1 Bft)
08.03.2012 09:00 13,7 C 4,9 C 0,0 UV-I 1,4 C 53 % 94 % 39 % 1025,7 hPa 0,0 l/m 5,7 km/h (1 Bft) 0,03 h 0,00 h 7,1 km/h (2 Bft)
08.03.2012 10:00 13,9 C 6,3 C 0,6 UV-I 4,6 C 52 % 90 % 88 % 1026,5 hPa 0,0 l/m 6,2 km/h (2 Bft) 0,77 h 0,00 h 9,1 km/h (2 Bft)
08.03.2012 11:00 14,2 C 7,1 C 0,9 UV-I 3,2 C 51 % 84 % 86 % 1027,8 hPa 0,0 l/m 5,8 km/h (2 Bft) 0,60 h 0,00 h 7,4 km/h (2 Bft)
08.03.2012 12:00 14,5 C 7,6 C 0,5 UV-I 2,3 C 50 % 79 % 62 % 1028,6 hPa 0,0 l/m 6,1 km/h (2 Bft) 0,17 h 0,00 h 9,6 km/h (2 Bft)
08.03.2012 13:00 14,7 C 7,4 C 0,2 UV-I 1,0 C 50 % 78 % 28 % 1029,1 hPa 0,0 l/m 5,2 km/h (1 Bft) 0,00 h 0,20 h 7,9 km/h (2 Bft)
08.03.2012 14:00 14,6 C 7,0 C 0,4 UV-I 0,6 C 49 % 81 % 16 % 1029,4 hPa 0,0 l/m 5,3 km/h (1 Bft) 0,07 h 0,20 h 7,5 km/h (2 Bft)
08.03.2012 15:00 15,5 C 7,8 C 0,6 UV-I 2,7 C 48 % 80 % 65 % 1030,8 hPa 0,0 l/m 2,4 km/h (1 Bft) 0,47 h 0,03 h 3,0 km/h (1 Bft)
08.03.2012 16:00 15,4 C 7,8 C 0,0 UV-I 0,4 C 48 % 79 % 12 % 1030,6 hPa 0,1 l/m 3,9 km/h (1 Bft) 0,00 h 0,37 h 8,7 km/h (2 Bft)
08.03.2012 17:00 15,0 C 6,2 C 0,0 UV-I 0,0 C 49 % 84 % 0 % 1031,1 hPa 0,6 l/m 1,6 km/h (1 Bft) 0,00 h 0,10 h 0,3 km/h (0 Bft)
08.03.2012 18:00 14,7 C 5,9 C 0,0 UV-I 0,0 C 51 % 88 % 0 % 1031,8 hPa 0,0 l/m 0,0 km/h (0 Bft) 0,00 h 0,13 h 0,0 km/h (0 Bft)
08.03.2012 19:00 14,4 C 5,3 C 0,0 UV-I 0,0 C 52 % 89 % 0 % 1032,9 hPa 0,0 l/m 0,0 km/h (0 Bft) 0,00 h 0,00 h 0,0 km/h (0 Bft)
08.03.2012 20:00 14,2 C 4,2 C 0,0 UV-I 0,0 C 52 % 89 % 0 % 1033,4 hPa 0,0 l/m 0,0 km/h (0 Bft) 0,00 h 0,00 h 0,0 km/h (0 Bft)
08.03.2012 21:00 14,1 C 3,3 C 0,0 UV-I 0,0 C 52 % 90 % 0 % 1034,1 hPa 0,0 l/m 0,0 km/h (0 Bft) 0,00 h 0,00 h 0,0 km/h (0 Bft)
08.03.2012 22:00 13,9 C 2,6 C 0,0 UV-I 0,0 C 52 % 91 % 0 % 1034,2 hPa 0,0 l/m 0,0 km/h (0 Bft) 0,00 h 0,00 h 0,0 km/h (0 Bft)
08.03.2012 23:00 13,8 C 2,0 C 0,0 UV-I 0,0 C 51 % 92 % 0 % 1035,1 hPa 0,0 l/m 0,0 km/h (0 Bft) 0,00 h 0,00 h 0,0 km/h (0 Bft)
09.03.2012 00:00 13,7 C 1,4 C 0,0 UV-I 0,0 C 51 % 93 % 0 % 1035,6 hPa 0,0 l/m 0,0 km/h (0 Bft) 0,00 h 0,00 h 0,0 km/h (0 Bft)
09.03.2012 01:00 13,6 C 0,8 C 0,0 UV-I 0,0 C 51 % 93 % 0 % 1035,4 hPa 0,0 l/m 0,0 km/h (0 Bft) 0,00 h 0,00 h 0,0 km/h (0 Bft)
09.03.2012 02:00 13,6 C 0,9 C 0,0 UV-I 0,0 C 51 % 94 % 0 % 1035,7 hPa 0,0 l/m 0,0 km/h (0 Bft) 0,00 h 0,00 h 0,0 km/h (0 Bft)
09.03.2012 03:00 13,6 C 2,1 C 0,0 UV-I 0,0 C 51 % 95 % 0 % 1035,8 hPa 0,0 l/m 0,0 km/h (0 Bft) 0,00 h 0,00 h 0,0 km/h (0 Bft)
09.03.2012 04:00 13,7 C 2,6 C 0,0 UV-I 0,0 C 52 % 95 % 0 % 1036,0 hPa 0,0 l/m 0,0 km/h (0 Bft) 0,00 h 0,00 h 0,3 km/h (0 Bft)
09.03.2012 05:00 13,6 C 2,7 C 0,0 UV-I 0,0 C 52 % 95 % 0 % 1036,1 hPa 0,0 l/m 1,9 km/h (1 Bft) 0,00 h 0,00 h 4,2 km/h (1 Bft)
09.03.2012 06:00 13,6 C 2,9 C 0,0 UV-I 0,0 C 52 % 95 % 0 % 1036,1 hPa 0,0 l/m 1,9 km/h (1 Bft) 0,00 h 0,00 h 3,7 km/h (1 Bft)
09.03.2012 07:00 13,6 C 3,4 C 0,0 UV-I 0,0 C 52 % 96 % 0 % 1036,2 hPa 0,0 l/m 3,6 km/h (1 Bft) 0,00 h 0,00 h 6,0 km/h (2 Bft)
09.03.2012 08:00 13,8 C 3,9 C 0,0 UV-I 0,0 C 52 % 96 % 0 % 1036,4 hPa 0,0 l/m 4,4 km/h (1 Bft) 0,00 h 0,00 h 7,0 km/h (2 Bft)
09.03.2012 09:00 13,9 C 4,8 C 0,1 UV-I 1,8 C 52 % 95 % 50 % 1036,9 hPa 0,0 l/m 3,0 km/h (1 Bft) 0,30 h 0,00 h 4,8 km/h (1 Bft)
09.03.2012 10:00 14,1 C 7,3 C 0,6 UV-I 3,6 C 51 % 92 % 88 % 1037,2 hPa 0,0 l/m 4,7 km/h (1 Bft) 0,67 h 0,00 h 7,4 km/h (2 Bft)
09.03.2012 11:00 14,3 C 9,8 C 2,2 UV-I 6,7 C 51 % 82 % 100 % 1037,1 hPa 0,0 l/m 6,7 km/h (2 Bft) 1,00 h 0,00 h 10,8 km/h (2 Bft)
09.03.2012 12:00 14,9 C 11,4 C 2,9 UV-I 5,3 C 49 % 68 % 100 % 1037,0 hPa 0,0 l/m 9,0 km/h (2 Bft) 1,00 h 0,00 h 12,9 km/h (3 Bft)
09.03.2012 13:00 16,0 C 11,8 C 1,3 UV-I 3,3 C 46 % 63 % 85 % 1037,6 hPa 0,0 l/m 8,6 km/h (2 Bft) 0,63 h 0,00 h 12,4 km/h (3 Bft)
09.03.2012 14:00 16,3 C 12,0 C 0,7 UV-I 2,4 C 45 % 63 % 69 % 1036,8 hPa 0,0 l/m 7,7 km/h (2 Bft) 0,33 h 0,00 h 10,4 km/h (2 Bft)
09.03.2012 15:00 16,2 C 11,8 C 0,2 UV-I 1,3 C 45 % 64 % 38 % 1036,2 hPa 0,0 l/m 7,1 km/h (2 Bft) 0,00 h 0,00 h 11,0 km/h (2 Bft)
09.03.2012 16:00 15,8 C 11,5 C 0,0 UV-I 0,3 C 45 % 66 % 10 % 1035,6 hPa 0,0 l/m 6,9 km/h (2 Bft) 0,00 h 0,00 h 9,1 km/h (2 Bft)
09.03.2012 17:00 15,4 C 11,0 C 0,0 UV-I 0,0 C 47 % 70 % 0 % 1035,1 hPa 0,0 l/m 4,4 km/h (1 Bft) 0,00 h 0,00 h 5,7 km/h (1 Bft)
09.03.2012 18:00 15,2 C 10,6 C 0,0 UV-I 0,0 C 49 % 73 % 0 % 1035,1 hPa 0,0 l/m 2,6 km/h (1 Bft) 0,00 h 0,00 h 4,4 km/h (1 Bft)
09.03.2012 19:00 15,0 C 10,1 C 0,0 UV-I 0,0 C 50 % 76 % 0 % 1035,3 hPa 0,0 l/m 1,4 km/h (1 Bft) 0,00 h 0,00 h 1,8 km/h (1 Bft)
09.03.2012 20:00 14,9 C 9,8 C 0,0 UV-I 0,0 C 51 % 78 % 0 % 1035,8 hPa 0,0 l/m 0,1 km/h (0 Bft) 0,00 h 0,00 h 0,3 km/h (0 Bft)
09.03.2012 21:00 14,9 C 9,5 C 0,0 UV-I 0,0 C 51 % 79 % 0 % 1035,8 hPa 0,0 l/m 0,4 km/h (0 Bft) 0,00 h 0,00 h 0,6 km/h (0 Bft)
09.03.2012 22:00 14,9 C 9,4 C 0,0 UV-I 0,0 C 51 % 80 % 0 % 1035,6 hPa 0,0 l/m 0,6 km/h (0 Bft) 0,00 h 0,00 h 1,3 km/h (1 Bft)
09.03.2012 23:00 14,9 C 9,2 C 0,0 UV-I 0,0 C 52 % 80 % 0 % 1036,0 hPa 0,0 l/m 2,8 km/h (1 Bft) 0,00 h 0,00 h 4,2 km/h (1 Bft)
10.03.2012 00:00 15,0 C 9,0 C 0,0 UV-I 0,0 C 52 % 81 % 0 % 1035,6 hPa 0,0 l/m 0,8 km/h (0 Bft) 0,00 h 0,00 h 1,3 km/h (1 Bft)
10.03.2012 01:00 14,9 C 8,6 C 0,0 UV-I 0,0 C 52 % 83 % 0 % 1035,5 hPa 0,0 l/m 1,1 km/h (1 Bft) 0,00 h 0,00 h 2,3 km/h (1 Bft)
10.03.2012 02:00 15,0 C 8,1 C 0,0 UV-I 0,0 C 52 % 84 % 0 % 1035,2 hPa 0,0 l/m 0,9 km/h (0 Bft) 0,00 h 0,00 h 2,1 km/h (1 Bft)
10.03.2012 03:00 14,9 C 8,0 C 0,0 UV-I 0,0 C 53 % 86 % 0 % 1035,3 hPa 0,0 l/m 1,5 km/h (1 Bft) 0,00 h 0,00 h 2,9 km/h (1 Bft)
10.03.2012 04:00 14,9 C 7,9 C 0,0 UV-I 0,0 C 53 % 87 % 0 % 1035,1 hPa 0,0 l/m 1,9 km/h (1 Bft) 0,00 h 0,00 h 2,8 km/h (1 Bft)
10.03.2012 05:00 14,8 C 7,9 C 0,0 UV-I 0,0 C 54 % 88 % 0 % 1035,0 hPa 0,0 l/m 2,2 km/h (1 Bft) 0,00 h 0,00 h 4,4 km/h (1 Bft)
10.03.2012 06:00 14,8 C 8,0 C 0,0 UV-I 0,0 C 54 % 89 % 0 % 1034,6 hPa 0,0 l/m 3,7 km/h (1 Bft) 0,00 h 0,00 h 6,6 km/h (2 Bft)
10.03.2012 07:00 14,8 C 8,1 C 0,0 UV-I 0,0 C 55 % 90 % 0 % 1034,5 hPa 0,0 l/m 4,3 km/h (1 Bft) 0,00 h 0,00 h 6,1 km/h (2 Bft)
10.03.2012 08:00 14,8 C 8,3 C 0,0 UV-I 0,0 C 56 % 91 % 0 % 1034,5 hPa 0,0 l/m 3,8 km/h (1 Bft) 0,00 h 0,20 h 7,4 km/h (2 Bft)
10.03.2012 09:00 14,8 C 8,4 C 0,0 UV-I 0,0 C 57 % 92 % 0 % 1035,1 hPa 0,0 l/m 3,3 km/h (1 Bft) 0,00 h 0,23 h 5,0 km/h (1 Bft)
10.03.2012 10:00 14,9 C 8,7 C 0,0 UV-I 0,1 C 57 % 93 % 4 % 1035,7 hPa 0,1 l/m 2,7 km/h (1 Bft) 0,00 h 0,10 h 5,0 km/h (1 Bft)
10.03.2012 11:00 15,1 C 9,2 C 0,1 UV-I 0,8 C 58 % 93 % 22 % 1035,6 hPa 0,0 l/m 5,7 km/h (1 Bft) 0,00 h 0,00 h 9,4 km/h (2 Bft)
10.03.2012 12:00 15,2 C 10,0 C 0,1 UV-I 1,1 C 58 % 92 % 32 % 1035,3 hPa 0,0 l/m 6,1 km/h (2 Bft) 0,00 h 0,00 h 8,9 km/h (2 Bft)
10.03.2012 13:00 15,4 C 10,2 C 0,0 UV-I 0,4 C 58 % 91 % 12 % 1035,2 hPa 0,0 l/m 6,5 km/h (2 Bft) 0,00 h 0,20 h 10,7 km/h (2 Bft)
10.03.2012 14:00 15,4 C 10,0 C 0,0 UV-I 0,3 C 59 % 93 % 10 % 1034,9 hPa 0,0 l/m 5,6 km/h (1 Bft) 0,00 h 0,00 h 8,3 km/h (2 Bft)
10.03.2012 15:00 15,4 C 10,0 C 0,0 UV-I 0,1 C 60 % 94 % 3 % 1034,5 hPa 0,0 l/m 5,0 km/h (1 Bft) 0,00 h 0,00 h 7,2 km/h (2 Bft)
10.03.2012 16:00 15,4 C 10,0 C 0,0 UV-I 0,1 C 60 % 95 % 3 % 1034,4 hPa 0,0 l/m 3,0 km/h (1 Bft) 0,00 h 0,00 h 4,8 km/h (1 Bft)
10.03.2012 17:00 15,4 C 10,2 C 0,0 UV-I 0,1 C 61 % 95 % 2 % 1034,5 hPa 0,0 l/m 2,6 km/h (1 Bft) 0,00 h 0,00 h 4,1 km/h (1 Bft)
10.03.2012 18:00 15,4 C 10,1 C 0,0 UV-I 0,0 C 61 % 95 % 0 % 1034,8 hPa 0,0 l/m 2,3 km/h (1 Bft) 0,00 h 0,37 h 4,4 km/h (1 Bft)
10.03.2012 19:00 15,4 C 9,8 C 0,0 UV-I 0,0 C 61 % 95 % 0 % 1034,7 hPa 0,0 l/m 1,7 km/h (1 Bft) 0,00 h 0,00 h 3,3 km/h (1 Bft)
10.03.2012 20:00 15,4 C 9,6 C 0,0 UV-I 0,0 C 61 % 96 % 0 % 1034,9 hPa 0,0 l/m 1,5 km/h (1 Bft) 0,00 h 0,00 h 2,2 km/h (1 Bft)
10.03.2012 21:00 15,4 C 9,4 C 0,0 UV-I 0,0 C 61 % 96 % 0 % 1035,2 hPa 0,0 l/m 0,5 km/h (0 Bft) 0,00 h 0,00 h 1,2 km/h (1 Bft)
10.03.2012 22:00 15,4 C 9,2 C 0,0 UV-I 0,0 C 61 % 96 % 0 % 1035,0 hPa 0,0 l/m 1,6 km/h (1 Bft) 0,00 h 0,00 h 2,9 km/h (1 Bft)
10.03.2012 23:00 15,4 C 9,1 C 0,0 UV-I 0,0 C 61 % 96 % 0 % 1034,9 hPa 0,0 l/m 1,4 km/h (1 Bft) 0,00 h 0,00 h 2,6 km/h (1 Bft)
11.03.2012 00:00 15,4 C 9,1 C 0,0 UV-I 0,0 C 61 % 96 % 0 % 1034,9 hPa 0,0 l/m 1,0 km/h (0 Bft) 0,00 h 0,00 h 1,9 km/h (1 Bft)
11.03.2012 01:00 15,5 C 9,0 C 0,0 UV-I 0,0 C 60 % 96 % 0 % 1034,9 hPa 0,0 l/m 0,6 km/h (0 Bft) 0,00 h 0,00 h 1,2 km/h (1 Bft)
11.03.2012 02:00 15,5 C 8,8 C 0,0 UV-I 0,0 C 60 % 96 % 0 % 1034,7 hPa 0,0 l/m 1,5 km/h (1 Bft) 0,00 h 0,00 h 2,8 km/h (1 Bft)
11.03.2012 03:00 15,5 C 8,7 C 0,0 UV-I 0,0 C 60 % 96 % 0 % 1034,6 hPa 0,0 l/m 0,9 km/h (0 Bft) 0,00 h 0,00 h 2,0 km/h (1 Bft)
11.03.2012 04:00 15,4 C 8,4 C 0,0 UV-I 0,0 C 60 % 97 % 0 % 1034,6 hPa 0,0 l/m 0,6 km/h (0 Bft) 0,00 h 0,00 h 0,9 km/h (0 Bft)
11.03.2012 05:00 15,5 C 8,2 C 0,0 UV-I 0,0 C 60 % 96 % 0 % 1034,5 hPa 0,0 l/m 0,7 km/h (0 Bft) 0,00 h 0,00 h 1,2 km/h (1 Bft)
11.03.2012 06:00 15,5 C 7,6 C 0,0 UV-I 0,0 C 60 % 96 % 0 % 1034,7 hPa 0,0 l/m 0,0 km/h (0 Bft) 0,00 h 0,00 h 0,0 km/h (0 Bft)
11.03.2012 07:00 15,4 C 7,0 C 0,0 UV-I 0,0 C 60 % 97 % 0 % 1035,1 hPa 0,0 l/m 0,5 km/h (0 Bft) 0,00 h 0,00 h 0,4 km/h (0 Bft)
11.03.2012 08:00 15,4 C 7,1 C 0,0 UV-I 0,7 C 60 % 97 % 19 % 1035,8 hPa 0,0 l/m 0,4 km/h (0 Bft) 0,00 h 0,00 h 1,4 km/h (1 Bft)
11.03.2012 09:00 15,4 C 8,1 C 0,0 UV-I 1,7 C 59 % 97 % 49 % 1035,8 hPa 0,0 l/m 2,3 km/h (1 Bft) 0,00 h 0,00 h 3,7 km/h (1 Bft)
11.03.2012 10:00 15,7 C 9,2 C 0,0 UV-I 1,8 C 59 % 95 % 50 % 1036,1 hPa 0,0 l/m 2,9 km/h (1 Bft) 0,00 h 0,00 h 4,8 km/h (1 Bft)
11.03.2012 11:00 15,9 C 10,1 C 0,3 UV-I 1,7 C 59 % 91 % 49 % 1036,3 hPa 0,0 l/m 6,6 km/h (2 Bft) 0,00 h 0,00 h 9,9 km/h (2 Bft)
11.03.2012 12:00 16,3 C 11,2 C 1,8 UV-I 3,8 C 59 % 85 % 86 % 1036,7 hPa 0,0 l/m 7,1 km/h (2 Bft) 0,67 h 0,00 h 10,5 km/h (2 Bft)
11.03.2012 13:00 17,0 C 12,3 C 0,8 UV-I 2,8 C 57 % 77 % 79 % 1036,9 hPa 0,0 l/m 6,6 km/h (2 Bft) 0,50 h 0,00 h 9,3 km/h (2 Bft)
11.03.2012 14:00 17,0 C 12,7 C 0,1 UV-I 1,1 C 56 % 74 % 32 % 1035,9 hPa 0,0 l/m 5,5 km/h (1 Bft) 0,00 h 0,00 h 8,3 km/h (2 Bft)
11.03.2012 15:00 16,8 C 12,9 C 0,1 UV-I 1,1 C 56 % 73 % 30 % 1035,3 hPa 0,0 l/m 4,3 km/h (1 Bft) 0,00 h 0,00 h 4,6 km/h (1 Bft)
11.03.2012 16:00 16,9 C 13,2 C 0,1 UV-I 1,0 C 56 % 72 % 29 % 1035,0 hPa 0,0 l/m 4,5 km/h (1 Bft) 0,00 h 0,00 h 6,8 km/h (2 Bft)
11.03.2012 17:00 16,8 C 12,9 C 0,0 UV-I 0,0 C 56 % 73 % 1 % 1034,6 hPa 0,0 l/m 3,0 km/h (1 Bft) 0,00 h 0,00 h 4,7 km/h (1 Bft)
11.03.2012 18:00 16,6 C 12,3 C 0,0 UV-I 0,0 C 56 % 75 % 0 % 1034,2 hPa 0,0 l/m 0,9 km/h (0 Bft) 0,00 h 0,00 h 2,3 km/h (1 Bft)
11.03.2012 19:00 16,4 C 11,6 C 0,0 UV-I 0,0 C 56 % 77 % 0 % 1034,6 hPa 0,0 l/m 1,7 km/h (1 Bft) 0,00 h 0,00 h 2,9 km/h (1 Bft)
11.03.2012 20:00 16,3 C 10,4 C 0,0 UV-I 0,0 C 56 % 79 % 0 % 1034,5 hPa 0,0 l/m 1,3 km/h (1 Bft) 0,00 h 0,00 h 1,7 km/h (1 Bft)
11.03.2012 21:00 16,1 C 9,1 C 0,0 UV-I 0,0 C 56 % 83 % 0 % 1034,4 hPa 0,0 l/m 0,1 km/h (0 Bft) 0,00 h 0,00 h 0,4 km/h (0 Bft)
11.03.2012 22:00 16,0 C 8,3 C 0,0 UV-I 0,0 C 57 % 86 % 0 % 1034,4 hPa 0,0 l/m 0,2 km/h (0 Bft) 0,00 h 0,00 h 0,2 km/h (0 Bft)
11.03.2012 23:00 15,9 C 7,6 C 0,0 UV-I 0,0 C 57 % 89 % 0 % 1034,1 hPa 0,0 l/m 0,7 km/h (0 Bft) 0,00 h 0,00 h 1,7 km/h (1 Bft)
Min-Datum _ 07.03.12 09.03.12 05.03.12 05.03.12 07.03.12 09.03.12 05.03.12 05.03.12 - 06.03.12 - - 05.03.12
_ Min-Zeit 22:02 02:06 00:00 00:00 15:22 13:14 00:00 04:06 - 16:40 - - 00:14
Minimum _ 13,2 C 0,6 C 0,0 UV-I 0,0 C 44 % 63 % 0 % 1010,2 hPa - 0,0 km/h (0 Bft) - - 0,0 km/h (0 Bft)
Max-Datum _ 11.03.12 11.03.12 11.03.12 08.03.12 05.03.12 05.03.12 06.03.12 09.03.12 07.03.12 07.03.12 06.03.12 05.03.12 07.03.12
_ Max-Zeit 13:28 16:06 12:30 10:30 00:00 02:52 10:44 13:06 17:32 16:56 10:42 00:00 17:28
Maximum _ 17,1 C 13,3 C 3,7 UV-I 7,4 C 61 % 97 % 100 % 1038,2 hPa 2,4 l/m 18,1 km/h
S (3 Bft)
0,03 h 0,03 h 50,6 km/h
O-NO (7 Bft)
Durchschnitt _ 14,8 C 6,9 C 0,1 UV-I 0,5 C 52 % 86 % 12 % 1027,2 hPa #15,1 l/m 4,5 km/h (1 Bft) #9:02 h #7:04 h 6,7 km/h (2 Bft)
© 2012 W. Hausmann